SQ5DCP-1 Weather Reports


Display with metric or nautical units.
time (UTC)temp
F
wind
direction
speed
MPH
gust
MPH
rain 1hr
in
rain 24hr
in
rain mn
in
humidity
%
barometer
mb
20260906022533 56 278 6.0 15.0 0.00 0.02 0.00 80 1017.7
20260906022031 56 285 5.0 11.0 0.00 0.02 0.00 80 1017.7
20260906021529 56 288 6.0 13.0 0.00 0.02 0.00 80 1017.7
20260906021028 56 290 6.0 15.0 0.00 0.02 0.00 80 1017.7
20260906020526 56 270 7.0 18.0 0.00 0.02 0.00 80 1017.7
20260906020024 56 285 6.0 11.0 0.00 0.02 0.00 80 1017.7
20260906015522 56 288 6.0 13.0 0.00 0.02 0.00 80 1017.6
20260906015020 56 287 6.0 11.0 0.00 0.02 0.00 80 1017.7
20260906014519 56 282 6.0 16.0 0.00 0.02 0.00 80 1017.5
20260906014016 56 280 8.0 17.0 0.00 0.02 0.00 80 1017.6
20260906013534 56 290 7.0 15.0 0.00 0.02 0.00 80 1017.6
20260906013033 56 282 6.0 16.0 0.00 0.02 0.00 80 1017.5
20260906012531 56 285 9.0 17.0 0.00 0.02 0.00 80 1017.5
20260906012029 56 287 7.0 15.0 0.00 0.02 0.00 80 1017.6
20260906011527 56 271 8.0 15.0 0.00 0.02 0.00 80 1017.6
20260906011025 56 285 5.0 11.0 0.00 0.02 0.00 80 1017.5
20260906010524 56 271 7.0 13.0 0.00 0.02 0.00 80 1017.5
20260906010022 56 288 7.0 18.0 0.00 0.02 0.00 80 1017.5
20260906005520 56 273 7.0 14.0 0.00 0.02 0.00 80 1017.5
20260906005018 56 294 7.0 15.0 0.00 0.02 0.00 80 1017.5
20260906004516 56 281 7.0 15.0 0.00 0.03 0.00 80 1017.6
20260906004034 56 291 8.0 23.0 0.00 0.03 0.00 80 1017.4
20260906003532 56 288 6.0 10.0 0.00 0.03 0.00 81 1017.4
20260906003031 56 284 5.0 11.0 0.00 0.03 0.00 80 1017.4
20260906002529 56 289 6.0 13.0 0.00 0.03 0.00 80 1017.5
20260906002027 56 286 7.0 17.0 0.00 0.03 0.00 80 1017.3
20260906001525 56 291 6.0 11.0 0.00 0.03 0.00 80 1017.4
20260906001023 56 278 5.0 10.0 0.00 0.03 0.00 80 1017.3
20260906000521 56 298 6.0 14.0 0.00 0.04 0.00 80 1017.2
20260906000019 56 290 6.0 14.0 0.00 0.04 0.00 80 1017.3
20260905235518 56 296 7.0 16.0 0.00 0.05 0.00 79 1017.4
20260905235015 56 301 7.0 15.0 0.00 0.05 0.00 80 1017.3
20260905234534 56 281 6.0 13.0 0.00 0.05 0.00 80 1017.2
20260905234032 56 281 6.0 13.0 0.00 0.05 0.00 80 1017.2
20260905233530 56 299 6.0 14.0 0.00 0.05 0.00 80 1017.2
20260905233028 56 283 5.0 17.0 0.00 0.05 0.00 80 1017.3
20260905232526 56 283 7.0 14.0 0.00 0.05 0.00 80 1017.3
20260905232025 56 287 6.0 16.0 0.00 0.05 0.00 80 1017.2
20260905231523 56 285 7.0 15.0 0.00 0.05 0.00 79 1017.2
20260905231021 56 286 6.0 14.0 0.00 0.05 0.00 79 1017.1
20260905230519 56 275 6.0 15.0 0.00 0.05 0.00 79 1017.1
20260905230049 56 280 7.0 17.0 0.00 0.05 0.00 79 1017.1
20260905230017 56 280 7.0 17.0 0.00 0.05 0.00 79 1017.1
20260905225535 56 290 7.0 15.0 0.00 0.05 0.00 79 1017.0
20260905225034 56 281 7.0 13.0 0.00 0.05 0.00 79 1017.1
20260905224532 56 282 6.0 11.0 0.00 0.05 0.00 79 1017.2
20260905224030 56 281 6.0 11.0 0.00 0.05 0.00 79 1017.2
20260905223528 56 279 6.0 13.0 0.00 0.05 0.00 79 1017.1
20260905223026 57 278 7.0 16.0 0.00 0.05 0.00 79 1017.0
20260905222524 57 283 7.0 16.0 0.00 0.05 0.00 78 1017.2
20260905222022 57 290 6.0 15.0 0.00 0.05 0.00 78 1017.2
20260905221520 57 289 6.0 14.0 0.00 0.05 0.00 77 1017.1
20260905221019 57 282 5.0 15.0 0.00 0.05 0.00 77 1017.1
20260905220517 57 286 5.0 10.0 0.00 0.05 0.00 77 1017.0
20260905220035 57 285 5.0 13.0 0.00 0.05 0.05 77 1017.0
20260905215533 57 288 6.0 15.0 0.00 0.05 0.05 76 1017.0
20260905215032 57 274 7.0 18.0 0.00 0.05 0.05 76 1016.9
20260905214529 57 284 6.0 16.0 0.00 0.05 0.05 76 1016.9
20260905214027 57 286 6.0 13.0 0.00 0.05 0.05 76 1017.0
20260905213526 58 295 7.0 11.0 0.00 0.05 0.05 76 1016.8
20260905213024 58 287 6.0 14.0 0.00 0.05 0.05 76 1016.7
20260905212522 58 285 5.0 13.0 0.00 0.05 0.05 76 1016.6
20260905212020 58 278 6.0 14.0 0.00 0.05 0.05 76 1016.7
20260905211518 58 278 7.0 15.0 0.00 0.05 0.05 76 1016.7
20260905211016 58 282 8.0 15.0 0.00 0.07 0.05 76 1016.6
20260905210534 58 284 7.0 13.0 0.00 0.08 0.05 75 1016.6
20260905210032 58 282 8.0 15.0 0.00 0.08 0.05 75 1016.5
20260905205531 58 280 8.0 15.0 0.00 0.08 0.05 74 1016.6
20260905205029 58 284 8.0 16.0 0.00 0.08 0.05 74 1016.6
20260905204527 58 279 8.0 17.0 0.00 0.08 0.05 74 1016.6
20260905204025 58 282 10.0 26.0 0.00 0.08 0.05 74 1016.6
20260905203523 58 279 9.0 22.0 0.00 0.09 0.05 75 1016.6
20260905203021 59 291 7.0 13.0 0.00 0.09 0.05 74 1016.5
20260905202520 59 289 8.0 19.0 0.00 0.09 0.05 74 1016.5
20260905202018 59 277 7.0 14.0 0.00 0.09 0.05 74 1016.4
20260905201516 59 279 6.0 15.0 0.00 0.09 0.05 74 1016.4
20260905201034 59 288 8.0 16.0 0.00 0.09 0.05 74 1016.3
20260905200532 59 266 8.0 19.0 0.00 0.09 0.05 75 1016.4
20260905200030 59 291 4.0 9.0 0.00 0.09 0.05 76 1016.4
20260905195528 59 284 4.0 11.0 0.00 0.09 0.05 76 1016.2
20260905195026 59 283 3.0 8.0 0.00 0.09 0.05 76 1016.4
20260905194524 59 278 3.0 8.0 0.00 0.09 0.05 76 1016.3
20260905194022 59 284 4.0 11.0 0.00 0.09 0.05 76 1016.3
20260905193520 59 275 4.0 10.0 0.00 0.09 0.05 76 1016.3
20260905193019 59 283 3.0 6.0 0.01 0.09 0.05 75 1016.2
20260905192516 59 283 3.0 10.0 0.01 0.09 0.05 75 1016.2
20260905192035 60 285 5.0 11.0 0.01 0.09 0.05 75 1016.5
20260905191532 60 268 3.0 6.0 0.01 0.09 0.05 74 1016.4
20260905191043 60 286 3.0 7.0 0.01 0.09 0.05 73 1016.6
20260905191030 60 272 2.0 7.0 0.01 0.09 0.05 73 1016.4
20260905190528 60 286 3.0 7.0 0.01 0.09 0.05 73 1016.6
20260905190026 60 270 3.0 4.0 0.01 0.09 0.05 73 1016.6
20260905185524 60 299 3.0 7.0 0.01 0.09 0.05 74 1016.7
20260905185023 60 289 3.0 7.0 0.01 0.09 0.05 73 1016.4
20260905184521 60 278 1.0 4.0 0.01 0.09 0.05 72 1016.4
20260905184018 60 277 3.0 8.0 0.01 0.09 0.05 73 1016.5
20260905183517 60 281 4.0 13.0 0.01 0.09 0.05 73 1016.6
20260905183035 60 286 4.0 9.0 0.00 0.08 0.04 72 1016.7
20260905182533 61 288 6.0 14.0 0.00 0.08 0.04 72 1016.9
20260905182031 61 286 6.0 15.0 0.00 0.08 0.04 69 1017.0
20260905181529 61 312 6.0 13.0 0.00 0.08 0.04 67 1016.9
20260905181028 62 303 5.0 10.0 0.00 0.08 0.04 66 1016.8
20260905180526 62 300 2.0 4.0 0.00 0.08 0.04 64 1016.6
20260905180024 62 324 1.0 4.0 0.00 0.08 0.04 63 1016.2
20260905175522 63 0.0 0.0 0.00 0.08 0.04 63 1016.1
20260905175020 63 0.0 0.0 0.00 0.08 0.04 63 1016.1
20260905174519 63 270 0.0 3.0 0.00 0.08 0.04 63 1016.1
20260905174016 63 0.0 0.0 0.00 0.08 0.04 62 1016.0
20260905173534 63 0.0 0.0 0.00 0.08 0.04 62 1015.9
20260905173033 63 284 1.0 3.0 0.00 0.08 0.04 62 1015.9
20260905172531 63 0.0 0.0 0.00 0.08 0.04 62 1015.8
20260905172029 63 285 1.0 3.0 0.00 0.08 0.04 62 1015.7
20260905171527 63 290 1.0 3.0 0.00 0.08 0.04 62 1015.8
20260905171025 63 286 3.0 7.0 0.00 0.08 0.04 61 1015.9
20260905170523 63 289 1.0 4.0 0.00 0.08 0.04 61 1015.7
20260905170022 63 293 3.0 8.0 0.00 0.08 0.04 61 1015.8
20260905165519 64 286 3.0 8.0 0.00 0.08 0.04 61 1015.8
20260905165018 64 288 3.0 8.0 0.00 0.08 0.04 61 1015.7
20260905164515 64 299 3.0 8.0 0.00 0.08 0.04 61 1015.9
20260905164034 64 348 5.0 11.0 0.00 0.08 0.04 60 1015.8
20260905163532 64 315 4.0 10.0 0.00 0.08 0.04 59 1015.7
20260905163029 65 334 5.0 13.0 0.00 0.08 0.04 59 1015.8
20260905162527 65 312 5.0 11.0 0.00 0.08 0.04 58 1015.7
20260905162025 65 334 7.0 17.0 0.00 0.08 0.04 57 1015.7
20260905161523 66 324 7.0 19.0 0.00 0.08 0.04 56 1015.7
20260905161022 67 335 10.0 25.0 0.00 0.08 0.04 54 1015.8
20260905160520 68 291 6.0 13.0 0.00 0.08 0.04 53 1015.3
20260905160018 68 285 8.0 16.0 0.00 0.08 0.04 53 1015.2
20260905155516 68 286 7.0 14.0 0.00 0.08 0.04 52 1015.1
20260905155034 68 283 7.0 13.0 0.00 0.08 0.04 52 1015.1
20260905154532 67 281 8.0 18.0 0.00 0.08 0.04 52 1015.0
20260905154030 67 277 7.0 16.0 0.00 0.08 0.04 52 1015.0
20260905153528 67 282 6.0 11.0 0.00 0.08 0.04 52 1015.0
20260905153026 68 292 6.0 10.0 0.00 0.08 0.04 51 1014.9
20260905152524 68 285 7.0 13.0 0.00 0.08 0.04 50 1014.9
20260905152022 68 291 7.0 17.0 0.00 0.08 0.04 50 1014.9
20260905151521 68 284 5.0 11.0 0.00 0.08 0.04 50 1014.8
20260905151019 68 290 6.0 15.0 0.00 0.08 0.04 50 1014.8
20260905150517 68 282 7.0 13.0 0.00 0.08 0.04 49 1015.0
20260905150035 68 287 7.0 13.0 0.00 0.08 0.04 48 1014.8
20260905145533 69 278 10.0 18.0 0.00 0.08 0.04 48 1014.8
20260905145031 69 287 8.0 17.0 0.00 0.08 0.04 48 1014.8
20260905144529 69 289 8.0 17.0 0.00 0.08 0.04 48 1014.9
20260905144027 69 296 8.0 14.0 0.00 0.08 0.04 48 1014.8
20260905143525 68 290 10.0 21.0 0.00 0.08 0.04 47 1014.9
20260905143024 68 283 8.0 15.0 0.00 0.08 0.04 48 1015.0
20260905142522 68 291 9.0 22.0 0.00 0.08 0.04 47 1014.9
20260905142020 68 283 8.0 14.0 0.00 0.08 0.04 47 1015.0
20260905141518 69 281 9.0 24.0 0.00 0.08 0.04 47 1014.8
20260905141049 69 285 9.0 19.0 0.00 0.08 0.04 47 1014.8
20260905141016 69 285 9.0 19.0 0.00 0.08 0.04 47 1014.8
20260905140534 68 295 8.0 17.0 0.00 0.08 0.04 48 1014.8
20260905140032 68 292 8.0 21.0 0.00 0.08 0.04 48 1014.7
20260905135531 68 277 9.0 19.0 0.00 0.08 0.04 48 1014.7
20260905135028 68 284 11.0 21.0 0.00 0.08 0.04 47 1014.7
20260905134527 69 300 9.0 19.0 0.00 0.08 0.04 47 1014.7
20260905134025 69 294 7.0 17.0 0.00 0.08 0.04 47 1014.7
20260905133523 69 296 8.0 19.0 0.00 0.08 0.04 49 1014.6
20260905133021 69 286 8.0 24.0 0.00 0.08 0.04 48 1014.6
20260905132519 70 292 11.0 22.0 0.00 0.08 0.04 48 1014.5
20260905132017 69 300 9.0 22.0 0.00 0.08 0.04 49 1014.5
20260905131536 69 290 8.0 21.0 0.00 0.08 0.04 49 1014.5
20260905131033 69 287 10.0 21.0 0.00 0.08 0.04 48 1014.5
20260905130532 69 293 11.0 23.0 0.00 0.08 0.04 48 1014.6
20260905130030 69 282 12.0 24.0 0.00 0.08 0.04 51 1014.6
20260905125528 69 280 8.0 17.0 0.00 0.08 0.04 53 1014.5
20260905125027 69 276 8.0 17.0 0.00 0.08 0.04 52 1014.6
20260905124525 68 291 9.0 17.0 0.00 0.08 0.04 53 1014.6
20260905124023 69 283 7.0 16.0 0.00 0.08 0.04 53 1014.6
20260905123521 69 281 9.0 22.0 0.00 0.08 0.04 52 1014.5
20260905123019 70 287 9.0 17.0 0.00 0.08 0.04 52 1014.6
20260905122517 69 286 10.0 22.0 0.00 0.08 0.04 52 1014.6
20260905122035 69 303 11.0 22.0 0.00 0.08 0.04 51 1014.5
20260905121533 69 287 13.0 25.0 0.00 0.08 0.04 52 1014.5
20260905121031 68 284 10.0 22.0 0.00 0.08 0.04 52 1014.5
20260905120529 68 292 10.0 27.0 0.00 0.08 0.04 54 1014.6
20260905120028 67 282 9.0 21.0 0.00 0.08 0.04 56 1014.5
20260905115526 67 283 10.0 18.0 0.00 0.08 0.04 57 1014.6
20260905115023 68 281 10.0 22.0 0.00 0.08 0.04 56 1014.4
20260905114522 68 282 9.0 21.0 0.00 0.08 0.04 56 1014.4
20260905114020 68 287 6.0 14.0 0.00 0.08 0.04 58 1014.4
20260905113518 68 289 9.0 19.0 0.00 0.08 0.04 57 1014.4
20260905113049 68 285 9.0 23.0 0.00 0.08 0.04 55 1014.4
20260905113016 68 285 9.0 23.0 0.00 0.08 0.04 55 1014.4
20260905112534 69 297 10.0 23.0 0.00 0.08 0.04 55 1014.2
20260905112032 69 287 9.0 17.0 0.00 0.08 0.04 55 1014.4
20260905111530 69 268 9.0 17.0 0.00 0.08 0.04 55 1014.2
20260905111028 69 299 10.0 21.0 0.00 0.08 0.04 55 1014.2
20260905110526 68 299 12.0 25.0 0.00 0.08 0.04 57 1014.1
20260905110025 68 278 10.0 22.0 0.00 0.08 0.04 57 1014.1
20260905105522 68 284 8.0 18.0 0.00 0.08 0.04 57 1014.1
20260905105020 68 292 9.0 16.0 0.00 0.08 0.04 59 1014.1
20260905104518 67 282 8.0 19.0 0.00 0.08 0.04 59 1014.2
20260905104049 67 286 11.0 25.0 0.00 0.08 0.04 58 1014.2
20260905104016 67 286 11.0 25.0 0.00 0.08 0.04 58 1014.2
20260905103535 67 291 11.0 26.0 0.00 0.08 0.04 59 1014.1
20260905103033 67 285 9.0 17.0 0.00 0.08 0.04 60 1014.1
20260905102531 67 283 10.0 18.0 0.00 0.08 0.04 59 1013.9
20260905102029 68 291 10.0 23.0 0.00 0.08 0.04 58 1013.9
20260905101527 68 285 11.0 29.0 0.00 0.08 0.04 58 1013.8
20260905101025 68 273 11.0 27.0 0.00 0.08 0.04 60 1013.8
20260905100523 67 292 8.0 19.0 0.00 0.08 0.04 61 1013.8
20260905100021 67 274 9.0 18.0 0.00 0.08 0.04 60 1013.9
20260905095520 67 290 7.0 19.0 0.00 0.08 0.04 61 1013.8
20260905095017 67 285 10.0 26.0 0.00 0.08 0.04 59 1013.9
20260905094535 67 284 10.0 21.0 0.00 0.08 0.04 61 1013.8
20260905094033 67 280 7.0 14.0 0.00 0.08 0.04 60 1013.7
20260905093531 67 281 12.0 23.0 0.00 0.08 0.04 60 1013.8
20260905093029 67 279 9.0 22.0 0.00 0.08 0.04 60 1013.8
20260905092527 67 276 11.0 25.0 0.00 0.08 0.04 60 1013.8
20260905092025 66 276 10.0 21.0 0.00 0.08 0.04 63 1013.7
20260905091522 66 284 9.0 22.0 0.00 0.08 0.04 64 1013.7
20260905091021 66 278 11.0 27.0 0.00 0.08 0.04 62 1013.7
20260905090519 66 273 10.0 21.0 0.00 0.08 0.04 64 1013.6
20260905090049 65 278 10.0 21.0 0.00 0.08 0.04 65 1013.6
20260905090017 65 278 10.0 21.0 0.00 0.08 0.04 65 1013.6
20260905085536 65 277 10.0 21.0 0.00 0.08 0.04 65 1013.5
20260905085033 65 283 8.0 17.0 0.00 0.08 0.04 66 1013.6
20260905084531 65 271 9.0 21.0 0.00 0.08 0.04 66 1013.5
20260905084029 65 295 8.0 17.0 0.00 0.08 0.04 67 1013.6
20260905083527 64 281 10.0 22.0 0.00 0.08 0.04 68 1013.6
20260905083025 64 291 10.0 26.0 0.00 0.08 0.04 70 1013.7
20260905082523 64 282 8.0 19.0 0.00 0.08 0.04 71 1013.6
20260905082020 64 288 8.0 19.0 0.00 0.08 0.04 71 1013.6
20260905081518 64 282 9.0 22.0 0.00 0.08 0.04 70 1013.6
20260905081050 64 282 11.0 23.0 0.00 0.08 0.04 70 1013.5
20260905081016 64 282 11.0 23.0 0.00 0.08 0.04 70 1013.5
20260905080535 64 292 7.0 16.0 0.00 0.08 0.04 70 1013.6
20260905080033 64 293 10.0 19.0 0.00 0.08 0.04 70 1013.5
20260905075530 64 273 9.0 19.0 0.00 0.08 0.04 71 1013.5
20260905075028 63 279 7.0 17.0 0.00 0.08 0.04 72 1013.4
20260905074526 63 287 7.0 16.0 0.00 0.08 0.04 73 1013.4
20260905074024 63 294 6.0 13.0 0.00 0.08 0.04 73 1013.4
20260905073522 63 305 8.0 16.0 0.00 0.08 0.04 73 1013.3
20260905073020 62 288 7.0 15.0 0.00 0.08 0.04 75 1013.3
20260905072518 62 295 6.0 16.0 0.00 0.08 0.04 75 1013.1
20260905072016 62 278 7.0 13.0 0.00 0.08 0.04 75 1013.1
20260905071534 62 293 8.0 17.0 0.00 0.08 0.04 75 1013.0
20260905071033 62 285 7.0 16.0 0.00 0.08 0.04 75 1013.0
20260905070531 62 272 8.0 18.0 0.00 0.08 0.04 76 1012.9
20260905070029 62 284 6.0 11.0 0.00 0.08 0.04 77 1013.0
20260905065527 62 287 7.0 19.0 0.00 0.08 0.04 76 1013.0
20260905065025 62 287 8.0 18.0 0.00 0.08 0.04 77 1012.9
20260905064523 62 284 7.0 17.0 0.00 0.08 0.04 77 1012.8
20260905064021 62 285 8.0 16.0 0.00 0.08 0.04 77 1012.7
20260905063519 62 278 6.0 13.0 0.00 0.08 0.04 77 1012.6
20260905063018 62 279 8.0 21.0 0.00 0.08 0.04 78 1012.6
20260905062516 62 287 8.0 21.0 0.00 0.08 0.04 78 1012.6
20260905062034 62 291 10.0 24.0 0.00 0.08 0.04 78 1012.4
20260905061532 62 282 6.0 15.0 0.00 0.08 0.04 78 1012.2
20260905061029 62 281 6.0 16.0 0.00 0.08 0.04 78 1012.2
20260905060527 62 285 7.0 16.0 0.00 0.08 0.04 78 1012.1
20260905060025 62 288 6.0 14.0 0.00 0.08 0.04 79 1012.1
20260905055523 62 282 7.0 15.0 0.00 0.08 0.04 79 1012.3
20260905055021 62 290 6.0 13.0 0.00 0.08 0.04 79 1012.3
20260905054520 61 284 7.0 17.0 0.00 0.08 0.04 79 1012.2
20260905054017 61 291 8.0 18.0 0.00 0.08 0.04 80 1012.1
20260905053515 61 284 6.0 15.0 0.00 0.08 0.04 80 1012.1
20260905053034 61 285 6.0 15.0 0.00 0.08 0.04 80 1012.0
20260905052532 61 295 7.0 17.0 0.00 0.08 0.04 80 1011.9
20260905052030 61 295 7.0 16.0 0.00 0.08 0.04 80 1012.0
20260905051528 61 287 7.0 17.0 0.00 0.08 0.04 80 1012.0
20260905051026 61 289 7.0 17.0 0.00 0.08 0.04 80 1012.0
20260905050524 61 279 7.0 18.0 0.00 0.08 0.04 80 1011.8
20260905050023 61 292 7.0 14.0 0.00 0.08 0.04 80 1011.6
20260905045520 61 278 8.0 15.0 0.00 0.08 0.04 81 1011.4
20260905045019 61 285 7.0 15.0 0.00 0.08 0.04 81 1011.4
20260905044517 61 282 5.0 16.0 0.00 0.08 0.04 81 1011.3
20260905044035 61 280 10.0 21.0 0.00 0.08 0.04 81 1011.2
20260905043534 61 291 10.0 21.0 0.00 0.08 0.04 81 1011.2
20260905043031 61 277 9.0 21.0 0.00 0.08 0.04 81 1011.2
20260905042529 61 290 9.0 16.0 0.00 0.08 0.04 82 1011.0
20260905042028 61 286 7.0 16.0 0.00 0.08 0.04 82 1010.9
20260905041525 61 276 7.0 18.0 0.00 0.08 0.04 82 1010.9
20260905041024 61 275 8.0 18.0 0.00 0.08 0.04 82 1010.8
20260905040522 61 277 7.0 14.0 0.00 0.08 0.04 82 1010.7
20260905040020 61 275 7.0 15.0 0.00 0.08 0.04 82 1010.6
20260905035518 61 287 7.0 17.0 0.00 0.08 0.04 83 1010.5
20260905035047 61 289 8.0 15.0 0.00 0.08 0.04 83 1010.3
20260905035016 61 289 8.0 15.0 0.00 0.08 0.04 83 1010.3
20260905034534 61 299 6.0 21.0 0.00 0.08 0.04 83 1010.4
20260905034033 61 288 8.0 14.0 0.00 0.08 0.04 83 1010.3
20260905033531 61 276 7.0 19.0 0.00 0.08 0.04 84 1010.5
20260905033029 61 287 6.0 22.0 0.00 0.08 0.04 84 1010.3
20260905032527 61 283 8.0 18.0 0.00 0.08 0.04 84 1010.5
20260905032025 61 284 8.0 22.0 0.00 0.08 0.04 84 1010.2
20260905031523 61 280 9.0 21.0 0.00 0.08 0.04 84 1010.1
20260905031021 61 277 7.0 21.0 0.00 0.08 0.04 84 1010.0
20260905030519 61 282 7.0 17.0 0.00 0.08 0.04 84 1010.1
20260905030018 61 283 7.0 13.0 0.00 0.08 0.04 84 1010.0
20260905025515 62 267 10.0 23.0 0.01 0.08 0.04 84 1009.9
20260905025034 62 274 7.0 17.0 0.01 0.08 0.04 84 1009.9
20260905024532 62 300 7.0 15.0 0.01 0.08 0.04 84 1009.9
20260905024030 62 299 8.0 18.0 0.01 0.08 0.04 84 1009.9
20260905023528 62 283 8.0 21.0 0.00 0.07 0.04 84 1010.0
20260905023026 62 277 9.0 17.0 0.00 0.07 0.04 84 1009.9